Regional Weather Roundup
Issued by NWS

Home | Current Version | Previous Version | Graphics & Text | Print | Product List | Glossary On
Versions: 1 2 3 4 5 6 7 8 9 10 11 12 13 14 15 16 17 18 19 20 21 22 23 24 25 26 27 28 29 30 31 32 33 34 35 36 37 38 39 40 41 42 43 44 45 46 47 48 49 50
961
ASUS45 KPSR 110110
RWRAZ

ARIZONA HOURLY REGIONAL WEATHER ROUNDUP
NATIONAL WEATHER SERVICE PHOENIX AZ
600 PM MST WED FEB 10 2016

NOTE: FAIR INDICATES FEW OR NO CLOUDS BELOW 12,000 FEET WITH NO
SIGNIFICANT WEATHER AND/OR OBSTRUCTIONS TO VISIBILITY.

AZZ001>003-036-110200-
NORTHWEST ARIZONA

CITY           SKY/WX    TMP DP  RH WIND       PRES   REMARKS
BULLHEAD CITY  CLEAR     75  25  15 N15G21    30.16R
KINGMAN        PTCLDY    64  25  22 N7        30.25R
$$

AZZ004>008-015-016-018-110200-
NORTH CENTRAL ARIZONA

CITY           SKY/WX    TMP DP  RH WIND       PRES   REMARKS
GRAND CANYON   PTCLDY    49  17  28 CALM      30.38R
WILLIAMS       MOCLDY    57  12  17 SW3       30.42F
PRESCOTT       MOCLDY    65  11  12 CALM      30.29S
FLAGSTAFF      MOCLDY    49  23  36 CALM      30.39R
PAYSON         MOCLDY    57  27  30 SW5       30.31S
PAGE           CLEAR     50  29  44 CALM      30.32F
$$

AZZ009>014-017-110200-
NORTHEAST ARIZONA

CITY           SKY/WX    TMP DP  RH WIND       PRES   REMARKS
WINSLOW        MOCLDY    58  16  19 CALM      30.32S
SAINT JOHNS    PTCLDY    52  15  23 CALM      30.34S
WINDOW ROCK    MOCLDY    51   0  12 E6        30.37R
SHOW LOW       MOCLDY    50  18  27 CALM      30.38S
$$

AZZ023-110200-
GREATER PHOENIX AREA

CITY           SKY/WX    TMP DP  RH WIND       PRES   REMARKS
PHOENIX        MOCLDY    82  22  11 NW7       30.09S
BUCKEYE        MOCLDY    75  32  20 CALM      30.13S
GLENDALE       MOCLDY    81  27  13 CALM      30.12S
LUKE AFB       MOCLDY    77  30  18 NW3       30.10R
DEER VALLEY    MOCLDY    78  24  13 W6        30.11S
SCOTTSDALE     MOCLDY    79  23  12 W3        30.13R
MESA-FALCON    PTCLDY   N/A N/A N/A VRB6      30.11S
MESA-GATEWAY   PTCLDY    79  28  15 W3        30.12S
CHANDLER       MOCLDY    81  27  13 VRB6      30.11S
$$

AZZ027-028-110200-
SOUTHWEST MARICOPA COUNTY AND PINAL COUNTY

CITY           SKY/WX    TMP DP  RH WIND       PRES   REMARKS
CASA GRANDE    MOCLDY    75  30  19 N5        30.12S
$$

AZZ503-504-507>509-110200-
SOUTHEAST ARIZONA

CITY           SKY/WX    TMP DP  RH WIND       PRES   REMARKS
TUCSON         PTCLDY    80  12   7 N3        30.17S
DAVIS-MONTHAN  PTCLDY    76  17  10 NW3       30.15S
RYAN FIELD     CLEAR     77  23  13 W3        30.16S
NOGALES        PTCLDY    75  11   8 CALM      30.21S
SIERRA VISTA   PTCLDY    64  20  19 SW5       30.27S
DOUGLAS        PTCLDY    67  11  11 N6        30.24S
SAFFORD        PTCLDY    69  19  15 W3        30.20S
$$

AZZ020-021-025-026-031-110200-
SOUTHWEST ARIZONA

CITY           SKY/WX    TMP DP  RH WIND       PRES   REMARKS
YUMA           MOCLDY    83  25  12 N6        30.08S
$$

CAZ031-033-041-043-047-048-061-110200-
SOUTHERN CALIFORNIA

CITY           SKY/WX    TMP DP  RH WIND       PRES   REMARKS
DOWNTOWN L.A.  CLEAR     74  37  26 W6        30.07R
L.A. AIRPORT   PTCLDY    69  44  40 W12       30.08S
SAN DIEGO      PTCLDY    76  32  20 CALM      30.08R
BURBANK        CLEAR     82  27  13 S6        30.08R
ONTARIO        PTCLDY    82  26  13 NW5       30.08S
RIVERSIDE      CLEAR     87  19   8 CALM      30.08R
PALM SPRINGS   PTCLDY    82  27  13 VRB6      30.12R
EL CENTRO NAS  MOCLDY    82  24  12 CALM      30.10S
IMPERIAL       MOCLDY    82  31  15 CALM      30.08S
BLYTHE         MOCLDY    78  34  20 E6        30.11S
NEEDLES        PTCLDY    75  26  16 N8        30.16R
$$

NVZ020-UTZ003-110200-
SOUTHERN NEVADA-UTAH

CITY           SKY/WX    TMP DP  RH WIND       PRES   REMARKS
LAS VEGAS      PTCLDY    70  20  15 CALM      30.18F
SALT LAKE CITY CLOUDY    30  27  88 N7        30.46R FOG     WCI  23
$$

NMZ009-TXZ055-110200-
NEW MEXICO-WEST TEXAS

CITY           SKY/WX    TMP DP  RH WIND       PRES   REMARKS
ALBUQUERQUE    PTCLDY    58  16  19 E3        30.29S
EL PASO        CLEAR     65  14  14 CALM      30.24F
$$


........................KEY........................
SKY/WX - SKY CONDITION/WEATHER
TMP    - TEMPERATURE IN FAHRENHEIT
DP     - DEW POINT IN FAHRENHEIT
RH     - RELATIVE HUMIDITY IN PERCENT
WIND   - DIRECTION AND SPEED IN MILES PER HOUR (MPH)
VRB    - VARIABLE WIND DIRECTION
PRES   - MEAN SEA LEVEL PRESSURE IN INCHES OF MERCURY
         F - FALLING PRESSURE   R - RISING PRESSURE
         S - STEADY PRESSURE
VSB    - VISIBILITY IN MILES
HX     - HEAT INDEX IN FAHRENHEIT
WCI    - WIND CHILL INDEX IN FAHRENHEIT
TC     - TEMPERATURE IN CELSIUS WHICH IS ALSO KNOWN AS
         TEMPERATURE IN CENTIGRADE
AFB    - AIR FORCE BASE
         LUKE AFB IS LUKE AIR FORCE BASE
         DAVIS-MONTHAN IS DAVIS-MONTHAN AIR FORCE BASE
NAS    - NAVAL AIR STATION
         EL CENTRO NAS IS EL CENTRO NAVAL AIR STATION
N/A    - NOT AVAILABLE





USA.gov is the U.S. government's official web portal to all federal, state and local government web resources and services.